Hourly Data Report for June 08, 2018

TORONTO CITY
ONTARIO
Current Station Operator: ECCC - MSC

43°40'00.000" N
79°24'00.000" W
112.50 m
6158355
71508
XTO

Download Data

Hourly Data (June 2018)
Hourly Data Report for June 8, 2018
TIME
LST
Temp Definition
°C
Dew Point Definition
°C
Rel Hum Definition
%
Precip. Amount Definition
mm

Wind Dir Definition
10's deg

Wind Spd Definition
km/h
Visibility Definition
km
Stn Press Definition
kPa
Hmdx Definition


Wind Chill Definition


Weather Definition


00:00 16.3 11.4 73 0.0 LegendMM LegendMM   100.55     LegendNANA
01:00 16.6 10.5 67 0.0 LegendMM LegendMM   100.58     LegendNANA
02:00 16.2 9.3 64 0.0 LegendMM LegendMM   100.60     LegendNANA
03:00 15.6 9.0 65 0.0 LegendMM LegendMM   100.62     LegendNANA
04:00 14.8 9.0 68 0.0 LegendMM LegendMM   100.64     LegendNANA
05:00 14.8 9.1 69 0.0 LegendMM LegendMM   100.68     LegendNANA
06:00 15.3 9.8 70 0.0 LegendMM LegendMM   100.80     LegendNANA
07:00 16.9 10.4 66 0.0 LegendMM LegendMM   100.89     LegendNANA
08:00 19.4 10.1 55 0.0 LegendMM LegendMM   100.92     LegendNANA
09:00 19.5 9.2 51 0.0 LegendMM LegendMM   100.96     LegendNANA
10:00 20.1 9.4 50 0.0 LegendMM LegendMM   100.97     LegendNANA
11:00 20.8 10.2 51 0.0 LegendMM LegendMM   100.94     LegendNANA
12:00 19.4 9.5 52 0.0 LegendMM LegendMM   100.95     LegendNANA
13:00 19.6 9.6 52 0.0 LegendMM LegendMM   100.94     LegendNANA
14:00 20.1 8.5 47 0.0 LegendMM LegendMM   100.90     LegendNANA
15:00 21.7 9.6 46 0.0 LegendMM LegendMM   100.87     LegendNANA
16:00 22.2 8.7 42 0.0 LegendMM LegendMM   100.85     LegendNANA
17:00 21.7 10.0 47 0.0 LegendMM LegendMM   100.81     LegendNANA
18:00 20.9 8.8 46 0.0 LegendMM LegendMM   100.76     LegendNANA
19:00 20.0 8.8 48 0.0 LegendMM LegendMM   100.76     LegendNANA
20:00 18.8 9.0 53 0.0 LegendMM LegendMM   100.77     LegendNANA
21:00 17.9 9.5 58 0.0 LegendMM LegendMM   100.84     LegendNANA
22:00 18.2 10.2 60 0.0 LegendMM LegendMM   100.84     LegendNANA
23:00 18.4 7.3 48 0.0 LegendMM LegendMM   100.83     LegendNANA

Notes on Data Quality.

Legend

  • E = Estimated
  • M = Missing
  • NA = Not Available*
  • [empty] = Indicates an unobserved value
Date modified: